Time,TemperatureF,DewpointF,PressureIn,WindDirection,WindDirectionDegrees,WindSpeedMPH,WindSpeedGustMPH,Humidity,HourlyPrecipIn,Conditions,Clouds,dailyrainin,SoftwareType,DateUTC
2013-05-16 00:07:00,72.5,61.7,29.62,ESE,112,1.1,-999.0,69,-99.99,,,0.00,Acu-Link.com,2013-05-16 04:07:00,
2013-05-16 00:22:00,72.1,62.2,29.62,WSW,247,0.0,-999.0,71,-99.99,,,0.00,Acu-Link.com,2013-05-16 04:22:00,
2013-05-16 00:37:00,71.8,61.1,29.62,East,90,0.0,-999.0,69,-99.99,,,0.00,Acu-Link.com,2013-05-16 04:37:00,
2013-05-16 00:52:00,71.6,61.3,29.62,SW,225,0.0,-999.0,70,-99.99,,,0.00,Acu-Link.com,2013-05-16 04:52:00,
2013-05-16 01:08:00,71.1,61.2,29.62,West,270,0.0,-999.0,71,-99.99,,,0.00,Acu-Link.com,2013-05-16 05:08:00,
2013-05-16 01:23:00,70.5,61.0,29.62,NNE,22,0.0,-999.0,72,-99.99,,,0.00,Acu-Link.com,2013-05-16 05:23:00,
2013-05-16 01:38:00,70.0,59.4,29.61,West,270,0.0,-999.0,69,-99.99,,,0.00,Acu-Link.com,2013-05-16 05:38:00,
2013-05-16 01:53:00,70.0,59.4,29.61,North,0,0.0,-999.0,69,-99.99,,,0.00,Acu-Link.com,2013-05-16 05:53:00,
2013-05-16 02:08:00,69.1,58.9,29.61,North,0,0.0,-999.0,70,-99.99,,,0.00,Acu-Link.com,2013-05-16 06:08:00,
2013-05-16 02:23:00,68.5,58.7,29.61,NW,315,0.0,-999.0,71,-99.99,,,0.00,Acu-Link.com,2013-05-16 06:23:00,
2013-05-16 02:38:00,67.8,59.2,29.61,NNW,337,0.0,-999.0,74,-99.99,,,0.00,Acu-Link.com,2013-05-16 06:38:00,
2013-05-16 02:53:00,67.3,58.3,29.62,South,180,0.0,-999.0,73,-99.99,,,0.00,Acu-Link.com,2013-05-16 06:53:00,
2013-05-16 03:08:00,67.1,58.5,29.61,SSW,202,0.0,-999.0,74,-99.99,,,0.00,Acu-Link.com,2013-05-16 07:08:00,
2013-05-16 03:23:00,67.1,58.1,29.61,WNW,292,1.1,-999.0,73,-99.99,,,0.00,Acu-Link.com,2013-05-16 07:23:00,
2013-05-16 03:39:00,67.1,57.4,29.61,West,270,0.0,-999.0,71,-99.99,,,0.00,Acu-Link.com,2013-05-16 07:39:00,
2013-05-16 03:54:00,66.9,57.6,29.61,WSW,247,0.0,-999.0,72,-99.99,,,0.00,Acu-Link.com,2013-05-16 07:54:00,
2013-05-16 04:09:00,67.3,57.2,29.62,West,270,0.0,-999.0,70,-99.99,,,0.00,Acu-Link.com,2013-05-16 08:09:00,
2013-05-16 04:24:00,68.2,58.0,29.61,SE,135,0.0,-999.0,70,-99.99,,,0.00,Acu-Link.com,2013-05-16 08:24:00,
2013-05-16 04:39:00,67.6,57.5,29.62,West,270,0.0,-999.0,70,-99.99,,,0.00,Acu-Link.com,2013-05-16 08:39:00,
2013-05-16 04:55:00,67.6,57.1,29.63,WNW,292,1.7,-999.0,69,-99.99,,,0.00,Acu-Link.com,2013-05-16 08:55:00,
2013-05-16 05:10:00,67.8,58.4,29.63,SSW,202,0.0,-999.0,72,-99.99,,,0.00,Acu-Link.com,2013-05-16 09:10:00,
2013-05-16 05:25:00,67.8,58.0,29.64,SW,225,0.0,-999.0,71,-99.99,,,0.00,Acu-Link.com,2013-05-16 09:25:00,
2013-05-16 05:40:00,68.2,58.8,29.64,West,270,1.1,-999.0,72,-99.99,,,0.00,Acu-Link.com,2013-05-16 09:40:00,
2013-05-16 05:55:00,68.4,57.8,29.65,WSW,247,1.1,-999.0,69,-99.99,,,0.00,Acu-Link.com,2013-05-16 09:55:00,
2013-05-16 06:10:00,71.2,58.8,29.66,West,270,3.7,-999.0,65,-99.99,,,0.00,Acu-Link.com,2013-05-16 10:10:00,
2013-05-16 06:25:00,71.8,59.4,29.68,WSW,247,1.1,-999.0,65,-99.99,,,0.00,Acu-Link.com,2013-05-16 10:25:00,
2013-05-16 06:40:00,72.1,59.7,29.69,West,270,1.7,-999.0,65,-99.99,,,0.00,Acu-Link.com,2013-05-16 10:40:00,
2013-05-16 06:55:00,71.6,60.5,29.69,South,180,0.0,-999.0,68,-99.99,,,0.00,Acu-Link.com,2013-05-16 10:55:00,
2013-05-16 07:10:00,71.1,61.6,29.70,NE,45,2.2,-999.0,72,-99.99,,,0.00,Acu-Link.com,2013-05-16 11:10:00,
2013-05-16 07:26:00,70.2,60.7,29.69,ESE,112,1.7,-999.0,72,-99.99,,,0.00,Acu-Link.com,2013-05-16 11:26:00,
2013-05-16 07:41:00,69.8,61.1,29.69,WSW,247,0.0,-999.0,74,-99.99,,,0.00,Acu-Link.com,2013-05-16 11:41:00,
2013-05-16 07:56:00,69.4,61.9,29.69,ESE,112,0.0,-999.0,77,-99.99,,,0.00,Acu-Link.com,2013-05-16 11:56:00,
2013-05-16 08:11:00,69.3,61.4,29.69,SW,225,2.7,-999.0,76,-99.99,,,0.00,Acu-Link.com,2013-05-16 12:11:00,
2013-05-16 08:26:00,69.3,62.1,29.71,SSE,157,0.0,-999.0,78,-99.99,,,0.00,Acu-Link.com,2013-05-16 12:26:00,
2013-05-16 08:41:00,70.3,62.0,29.72,SSE,157,1.7,-999.0,75,-99.99,,,0.00,Acu-Link.com,2013-05-16 12:41:00,
2013-05-16 08:56:00,71.8,61.5,29.71,ESE,112,2.7,-999.0,70,-99.99,,,0.00,Acu-Link.com,2013-05-16 12:56:00,
2013-05-16 09:11:00,73.9,62.7,29.70,West,270,3.2,-999.0,68,-99.99,,,0.00,Acu-Link.com,2013-05-16 13:11:00,
2013-05-16 09:26:00,74.5,62.8,29.70,South,180,2.2,-999.0,67,-99.99,,,0.00,Acu-Link.com,2013-05-16 13:26:00,
2013-05-16 09:42:00,73.4,62.6,29.69,South,180,1.7,-999.0,69,-99.99,,,0.00,Acu-Link.com,2013-05-16 13:42:00,
2013-05-16 09:57:00,72.1,63.3,29.70,West,270,2.2,-999.0,74,-99.99,,,0.00,Acu-Link.com,2013-05-16 13:57:00,
2013-05-16 10:12:00,70.7,63.5,29.70,SSW,202,0.0,-999.0,78,-99.99,,,0.00,Acu-Link.com,2013-05-16 14:12:00,
2013-05-16 10:27:00,68.7,63.0,29.70,South,180,1.7,-999.0,82,-99.99,,,0.00,Acu-Link.com,2013-05-16 14:27:00,
2013-05-16 10:42:00,68.4,63.0,29.71,WNW,292,1.7,-999.0,83,-99.99,,,0.00,Acu-Link.com,2013-05-16 14:42:00,
2013-05-16 10:57:00,68.2,62.5,29.72,West,270,1.1,-999.0,82,-99.99,,,0.00,Acu-Link.com,2013-05-16 14:57:00,
2013-05-16 11:12:00,68.2,62.1,29.73,South,180,2.2,-999.0,81,-99.99,,,0.00,Acu-Link.com,2013-05-16 15:12:00,
2013-05-16 11:27:00,68.4,62.3,29.74,East,90,2.2,-999.0,81,-99.99,,,0.00,Acu-Link.com,2013-05-16 15:27:00,
2013-05-16 11:42:00,68.5,62.8,29.74,ENE,67,1.7,-999.0,82,-99.99,,,0.00,Acu-Link.com,2013-05-16 15:42:00,
2013-05-16 11:57:00,69.4,63.0,29.73,West,270,1.1,-999.0,80,-99.99,,,0.00,Acu-Link.com,2013-05-16 15:57:00,
2013-05-16 12:13:00,70.2,63.4,29.73,NNW,337,2.7,-999.0,79,-99.99,,,0.00,Acu-Link.com,2013-05-16 16:13:00,
2013-05-16 12:28:00,72.3,64.3,29.72,WSW,247,1.7,-999.0,76,-99.99,,,0.00,Acu-Link.com,2013-05-16 16:28:00,
2013-05-16 12:43:00,73.4,64.6,29.71,North,0,1.7,-999.0,74,-99.99,,,0.00,Acu-Link.com,2013-05-16 16:43:00,
2013-05-16 12:58:00,73.8,65.0,29.71,SW,225,0.0,-999.0,74,-99.99,,,0.00,Acu-Link.com,2013-05-16 16:58:00,
2013-05-16 13:13:00,74.8,64.8,29.71,ESE,112,1.7,-999.0,71,-99.99,,,0.00,Acu-Link.com,2013-05-16 17:13:00,
2013-05-16 13:28:00,76.1,66.0,29.70,North,0,5.8,-999.0,71,-99.99,,,0.00,Acu-Link.com,2013-05-16 17:28:00,
2013-05-16 13:43:00,79.3,67.4,29.71,NNW,337,1.7,-999.0,67,-99.99,,,0.00,Acu-Link.com,2013-05-16 17:43:00,
2013-05-16 13:58:00,79.0,66.2,29.71,NE,45,2.2,-999.0,65,-99.99,,,0.00,Acu-Link.com,2013-05-16 17:58:00,
2013-05-16 14:13:00,78.8,66.0,29.72,South,180,1.7,-999.0,65,-99.99,,,0.00,Acu-Link.com,2013-05-16 18:13:00,
2013-05-16 14:29:00,78.3,65.5,29.72,ESE,112,1.1,-999.0,65,-99.99,,,0.00,Acu-Link.com,2013-05-16 18:29:00,
2013-05-16 14:44:00,78.4,66.1,29.72,East,90,4.2,-999.0,66,-99.99,,,0.00,Acu-Link.com,2013-05-16 18:44:00,
2013-05-16 14:59:00,77.7,66.3,29.71,North,0,1.7,-999.0,68,-99.99,,,0.00,Acu-Link.com,2013-05-16 18:59:00,
2013-05-16 15:14:00,77.7,65.9,29.72,South,180,1.7,-999.0,67,-99.99,,,0.00,Acu-Link.com,2013-05-16 19:14:00,
2013-05-16 15:29:00,78.6,66.7,29.71,SSE,157,1.7,-999.0,67,-99.99,,,0.00,Acu-Link.com,2013-05-16 19:29:00,
2013-05-16 15:44:00,78.4,66.5,29.70,West,270,1.7,-999.0,67,-99.99,,,0.00,Acu-Link.com,2013-05-16 19:44:00,
2013-05-16 15:59:00,79.9,66.6,29.69,SSW,202,2.2,-999.0,64,-99.99,,,0.00,Acu-Link.com,2013-05-16 19:59:00,
2013-05-16 16:14:00,79.9,66.6,29.69,WSW,247,1.7,-999.0,64,-99.99,,,0.00,Acu-Link.com,2013-05-16 20:14:00,
2013-05-16 16:29:00,79.7,65.0,29.69,West,270,3.2,-999.0,61,-99.99,,,0.00,Acu-Link.com,2013-05-16 20:29:00,
2013-05-16 16:45:00,80.6,66.4,29.69,East,90,2.7,-999.0,62,-99.99,,,0.00,Acu-Link.com,2013-05-16 20:45:00,
2013-05-16 17:00:00,79.2,65.0,29.69,SSE,157,2.2,-999.0,62,-99.99,,,0.00,Acu-Link.com,2013-05-16 21:00:00,
2013-05-16 17:15:00,80.6,65.9,29.70,SW,225,1.1,-999.0,61,-99.99,,,0.00,Acu-Link.com,2013-05-16 21:15:00,
2013-05-16 17:30:00,79.2,64.6,29.70,SSW,202,1.1,-999.0,61,-99.99,,,0.00,Acu-Link.com,2013-05-16 21:30:00,
2013-05-16 17:45:00,79.9,65.2,29.71,SW,225,2.2,-999.0,61,-99.99,,,0.00,Acu-Link.com,2013-05-16 21:45:00,
2013-05-16 18:00:00,79.2,64.6,29.71,WSW,247,3.2,-999.0,61,-99.99,,,0.00,Acu-Link.com,2013-05-16 22:00:00,
2013-05-16 18:15:00,79.2,65.5,29.70,West,270,1.7,-999.0,63,-99.99,,,0.00,Acu-Link.com,2013-05-16 22:15:00,
2013-05-16 18:30:00,79.5,65.3,29.70,West,270,2.2,-999.0,62,-99.99,,,0.00,Acu-Link.com,2013-05-16 22:30:00,
2013-05-16 18:45:00,78.3,64.6,29.71,South,180,1.1,-999.0,63,-99.99,,,0.00,Acu-Link.com,2013-05-16 22:45:00,
2013-05-16 19:01:00,77.2,64.5,29.71,SSW,202,1.1,-999.0,65,-99.99,,,0.00,Acu-Link.com,2013-05-16 23:01:00,
2013-05-16 19:16:00,76.1,63.9,29.71,SW,225,0.0,-999.0,66,-99.99,,,0.00,Acu-Link.com,2013-05-16 23:16:00,
2013-05-16 19:31:00,75.6,63.9,29.73,SW,225,0.0,-999.0,67,-99.99,,,0.00,Acu-Link.com,2013-05-16 23:31:00,
2013-05-16 19:46:00,74.5,63.2,29.72,South,180,0.0,-999.0,68,-99.99,,,0.00,Acu-Link.com,2013-05-16 23:46:00,
2013-05-16 20:01:00,73.4,62.2,29.73,SSW,202,0.0,-999.0,68,-99.99,,,0.00,Acu-Link.com,2013-05-17 00:01:00,
2013-05-16 20:16:00,71.8,61.5,29.74,South,180,0.0,-999.0,70,-99.99,,,0.00,Acu-Link.com,2013-05-17 00:16:00,
2013-05-16 20:31:00,71.1,60.8,29.74,SSW,202,1.1,-999.0,70,-99.99,,,0.00,Acu-Link.com,2013-05-17 00:31:00,
2013-05-16 20:46:00,70.2,60.3,29.75,South,180,1.7,-999.0,71,-99.99,,,0.00,Acu-Link.com,2013-05-17 00:46:00,
2013-05-16 21:01:00,69.4,60.0,29.76,SSE,157,1.1,-999.0,72,-99.99,,,0.00,Acu-Link.com,2013-05-17 01:01:00,
2013-05-16 21:17:00,68.9,59.9,29.77,SW,225,2.2,-999.0,73,-99.99,,,0.00,Acu-Link.com,2013-05-17 01:17:00,
2013-05-16 21:32:00,68.2,60.0,29.78,WNW,292,1.7,-999.0,75,-99.99,,,0.00,Acu-Link.com,2013-05-17 01:32:00,
2013-05-16 21:47:00,67.5,59.7,29.78,West,270,0.0,-999.0,76,-99.99,,,0.00,Acu-Link.com,2013-05-17 01:47:00,
2013-05-16 22:02:00,66.9,59.4,29.79,NW,315,3.2,-999.0,77,-99.99,,,0.00,Acu-Link.com,2013-05-17 02:02:00,
2013-05-16 22:17:00,66.0,58.9,29.79,ESE,112,0.0,-999.0,78,-99.99,,,0.00,Acu-Link.com,2013-05-17 02:17:00,
2013-05-16 22:32:00,65.3,58.6,29.79,SSW,202,2.2,-999.0,79,-99.99,,,0.00,Acu-Link.com,2013-05-17 02:32:00,
2013-05-16 22:47:00,64.6,58.6,29.79,SSE,157,0.0,-999.0,81,-99.99,,,0.00,Acu-Link.com,2013-05-17 02:47:00,
2013-05-16 23:02:00,63.7,58.1,29.80,SSW,202,0.0,-999.0,82,-99.99,,,0.00,Acu-Link.com,2013-05-17 03:02:00,
2013-05-16 23:17:00,62.6,57.7,29.80,SSW,202,0.0,-999.0,84,-99.99,,,0.00,Acu-Link.com,2013-05-17 03:17:00,
2013-05-16 23:32:00,62.1,58.2,29.81,West,270,0.0,-999.0,87,-99.99,,,0.00,Acu-Link.com,2013-05-17 03:32:00,
2013-05-16 23:48:00,61.9,58.0,29.80,West,270,0.0,-999.0,87,-99.99,,,0.00,Acu-Link.com,2013-05-17 03:48:00,